CCA126 RKSI-ZBAA

Flight info

Callsign CCA126
Flight time 1h 30m
Altitude 40000
Route NOPIK Y697 AGAVO/K0850S0660 A591 IKEKA W4 HCH W200 DOVIV W55 DUMAP DUMAP9Z
Aircraft A359/H-SDE2E3GHIJ3J4J5LM1ORWXY/LB1D1

Departure

Time 2026-05-06 07:57
Airport Incheon International Airport (RKSI)

Arrival

Time 2026-05-06 09:27
Airport Beijing Capital International Airport (ZBAA)
Time Latitude Longitude Altitude Speed Heading
2026-05-06 07:40 37.46322 126.43199 40 ft 0 kts 69°
2026-05-06 07:48 37.46320 126.43194 39 ft 3 kts 69°
2026-05-06 07:48 37.46311 126.43162 39 ft 4 kts 70°
2026-05-06 07:49 37.46302 126.43130 37 ft 4 kts 70°
2026-05-06 07:49 37.46293 126.43104 36 ft 4 kts 45°
2026-05-06 07:49 37.46273 126.43095 38 ft 4 kts 344°
2026-05-06 07:49 37.46250 126.43106 38 ft 1 kts 336°
2026-05-06 07:50 37.46246 126.43109 38 ft 0 kts 336°
2026-05-06 07:52 37.46247 126.43108 37 ft 2 kts 336°
2026-05-06 07:52 37.46304 126.43076 37 ft 14 kts 336°
2026-05-06 07:52 37.46349 126.42985 39 ft 14 kts 258°
2026-05-06 07:53 37.46297 126.42887 39 ft 14 kts 233°
2026-05-06 07:53 37.46240 126.42780 39 ft 11 kts 254°
2026-05-06 07:53 37.46265 126.42726 39 ft 10 kts 323°
2026-05-06 07:53 37.46351 126.42646 39 ft 22 kts 323°
2026-05-06 07:54 37.46490 126.42522 39 ft 26 kts 324°
2026-05-06 07:54 37.46642 126.42392 39 ft 27 kts 324°
2026-05-06 07:54 37.46796 126.42256 39 ft 28 kts 324°
2026-05-06 07:54 37.46957 126.42113 39 ft 29 kts 325°
2026-05-06 07:55 37.47126 126.41963 39 ft 31 kts 324°
2026-05-06 07:55 37.47302 126.41805 37 ft 23 kts 324°
2026-05-06 07:55 37.47340 126.41715 39 ft 18 kts 258°
2026-05-06 07:55 37.47255 126.41605 38 ft 17 kts 179°
2026-05-06 07:56 37.47153 126.41671 39 ft 17 kts 146°
2026-05-06 07:56 37.46931 126.41869 39 ft 73 kts 146°
2026-05-06 07:56 37.46326 126.42408 37 ft 138 kts 144°
2026-05-06 07:56 37.45413 126.43232 307 ft 172 kts 148°
2026-05-06 07:57 37.44398 126.44121 1043 ft 180 kts 149°
2026-05-06 07:57 37.43287 126.44966 1642 ft 200 kts 158°
2026-05-06 07:57 37.41958 126.45885 1984 ft 233 kts 156°
2026-05-06 07:57 37.40508 126.46950 2669 ft 247 kts 154°
2026-05-06 07:58 37.39009 126.48076 3457 ft 254 kts 156°
2026-05-06 07:58 37.37371 126.48877 4233 ft 257 kts 168°
2026-05-06 07:58 37.35628 126.49458 5074 ft 261 kts 171°
2026-05-06 07:58 37.33824 126.49634 5950 ft 261 kts 187°
2026-05-06 07:59 37.32083 126.49037 6825 ft 261 kts 209°
2026-05-06 07:59 37.30713 126.47562 7714 ft 263 kts 236°
2026-05-06 07:59 37.30051 126.45435 8635 ft 266 kts 263°
2026-05-06 07:59 37.30106 126.43111 9623 ft 268 kts 275°
2026-05-06 08:00 37.30332 126.40759 10464 ft 276 kts 276°
2026-05-06 08:00 37.30571 126.38267 10853 ft 299 kts 276°
2026-05-06 08:00 37.30816 126.35570 11189 ft 321 kts 275°
2026-05-06 08:00 37.31065 126.32700 11611 ft 338 kts 275°
2026-05-06 08:01 37.31319 126.29732 12313 ft 345 kts 275°
2026-05-06 08:01 37.31573 126.26713 13095 ft 349 kts 274°
2026-05-06 08:01 37.31828 126.23665 13875 ft 352 kts 274°
2026-05-06 08:01 37.32083 126.20591 14569 ft 355 kts 274°
2026-05-06 08:02 37.32339 126.17491 15237 ft 359 kts 274°
2026-05-06 08:02 37.32596 126.14359 15921 ft 362 kts 274°
2026-05-06 08:02 37.32855 126.11200 16619 ft 366 kts 274°
2026-05-06 08:02 37.33116 126.08003 17325 ft 369 kts 274°
2026-05-06 08:03 37.33377 126.04782 18055 ft 373 kts 275°
2026-05-06 08:03 37.33641 126.01529 18708 ft 376 kts 275°
2026-05-06 08:03 37.33906 125.98246 19358 ft 378 kts 275°
2026-05-06 08:03 37.34172 125.94942 20020 ft 381 kts 275°
2026-05-06 08:04 37.34438 125.91619 20672 ft 384 kts 275°
2026-05-06 08:04 37.34702 125.88314 21328 ft 386 kts 275°
2026-05-06 08:04 37.34971 125.84937 21983 ft 389 kts 275°
2026-05-06 08:04 37.35241 125.81537 22648 ft 392 kts 276°
2026-05-06 08:05 37.35511 125.78113 23309 ft 396 kts 276°
2026-05-06 08:05 37.35784 125.74656 23909 ft 399 kts 276°
2026-05-06 08:05 37.36057 125.71170 24465 ft 402 kts 276°
2026-05-06 08:05 37.36331 125.67662 25032 ft 405 kts 276°
2026-05-06 08:06 37.36606 125.64129 25595 ft 407 kts 276°
2026-05-06 08:06 37.36882 125.60572 26158 ft 410 kts 276°
2026-05-06 08:06 37.37158 125.56991 26709 ft 413 kts 276°
2026-05-06 08:06 37.37435 125.53389 27243 ft 416 kts 276°
2026-05-06 08:07 37.37713 125.49762 27793 ft 418 kts 276°
2026-05-06 08:07 37.37992 125.46110 28365 ft 420 kts 276°
2026-05-06 08:07 37.38270 125.42447 28888 ft 423 kts 276°
2026-05-06 08:07 37.38550 125.38747 29395 ft 426 kts 276°
2026-05-06 08:08 37.38830 125.35025 29881 ft 429 kts 276°
2026-05-06 08:08 37.39111 125.31278 30320 ft 432 kts 277°
2026-05-06 08:08 37.39389 125.27562 30734 ft 434 kts 277°
2026-05-06 08:08 37.39633 125.23770 31164 ft 436 kts 274°
2026-05-06 08:09 37.39677 125.19958 31636 ft 436 kts 272°
2026-05-06 08:09 37.39645 125.16136 32027 ft 439 kts 271°
2026-05-06 08:09 37.39575 125.12291 32374 ft 441 kts 271°
2026-05-06 08:09 37.39490 125.08425 32718 ft 443 kts 271°
2026-05-06 08:10 37.39402 125.04540 33105 ft 444 kts 271°
2026-05-06 08:10 37.39316 125.00670 33558 ft 442 kts 271°
2026-05-06 08:10 37.39235 124.96805 34000 ft 441 kts 271°
2026-05-06 08:10 37.39157 124.92964 34495 ft 437 kts 271°
2026-05-06 08:11 37.39081 124.89157 35002 ft 433 kts 272°
2026-05-06 08:11 37.39031 124.86653 35330 ft 430 kts 272°
2026-05-06 08:11 37.38957 124.82912 35784 ft 427 kts 272°
2026-05-06 08:11 37.38884 124.79185 36215 ft 425 kts 272°
2026-05-06 08:12 37.38808 124.75482 36625 ft 423 kts 272°
2026-05-06 08:12 37.38731 124.71797 37048 ft 419 kts 272°
2026-05-06 08:12 37.38652 124.68159 37598 ft 413 kts 272°
2026-05-06 08:12 37.38572 124.64558 38071 ft 409 kts 273°
2026-05-06 08:13 37.38492 124.60984 38461 ft 407 kts 273°
2026-05-06 08:13 37.38414 124.57440 38784 ft 405 kts 273°
2026-05-06 08:13 37.38335 124.53895 38970 ft 406 kts 273°
2026-05-06 08:13 37.38255 124.50343 39113 ft 407 kts 273°
2026-05-06 08:14 37.38043 124.46774 39277 ft 411 kts 267°
2026-05-06 08:14 37.37508 124.43214 39475 ft 416 kts 261°
2026-05-06 08:14 37.36612 124.39732 39619 ft 423 kts 255°
2026-05-06 08:14 37.35325 124.36378 39801 ft 430 kts 248°
2026-05-06 08:15 37.33809 124.33126 39922 ft 433 kts 246°
2026-05-06 08:15 37.32215 124.29909 39946 ft 434 kts 245°
2026-05-06 08:15 37.28951 124.23529 39944 ft 434 kts 245°
2026-05-06 08:16 37.25695 124.17154 39936 ft 433 kts 245°
2026-05-06 08:16 37.22452 124.10773 39938 ft 435 kts 244°
2026-05-06 08:17 37.19114 124.04488 39941 ft 436 kts 243°
2026-05-06 08:17 37.15713 123.98184 39941 ft 435 kts 244°
2026-05-06 08:18 37.12406 123.91834 39941 ft 434 kts 244°
2026-05-06 08:18 37.09146 123.85458 39939 ft 434 kts 244°
2026-05-06 08:19 37.05879 123.79099 39936 ft 434 kts 244°
2026-05-06 08:19 37.02600 123.72757 39936 ft 434 kts 244°
2026-05-06 08:20 36.99305 123.66405 39936 ft 436 kts 244°
2026-05-06 08:20 36.96002 123.60054 39938 ft 435 kts 244°
2026-05-06 08:21 36.92695 123.53706 39939 ft 435 kts 244°
2026-05-06 08:21 36.89391 123.47374 39920 ft 435 kts 244°
2026-05-06 08:22 36.86539 123.40843 39942 ft 426 kts 254°
2026-05-06 08:22 36.85132 123.33759 39936 ft 416 kts 269°
2026-05-06 08:23 36.85382 123.26622 39933 ft 410 kts 282°
2026-05-06 08:23 36.86853 123.19744 39930 ft 410 kts 287°
2026-05-06 08:24 36.88533 123.12934 39927 ft 410 kts 287°
2026-05-06 08:24 36.90210 123.06138 39927 ft 409 kts 287°
2026-05-06 08:25 36.91858 122.99329 39922 ft 409 kts 287°
2026-05-06 08:25 36.93478 122.92557 39922 ft 409 kts 287°
2026-05-06 08:26 36.95103 122.85741 39921 ft 409 kts 286°
2026-05-06 08:26 36.96722 122.78927 39917 ft 408 kts 286°
2026-05-06 08:27 36.98337 122.72121 39914 ft 408 kts 286°
2026-05-06 08:27 36.99949 122.65302 39914 ft 409 kts 286°
2026-05-06 08:28 37.01559 122.58479 39911 ft 408 kts 286°
2026-05-06 08:28 37.03162 122.51665 39911 ft 408 kts 286°
2026-05-06 08:29 37.04762 122.44842 39810 ft 406 kts 286°
2026-05-06 08:29 37.05555 122.41471 39349 ft 401 kts 286°
2026-05-06 08:29 37.06509 122.38192 39070 ft 402 kts 292°
2026-05-06 08:30 37.09353 122.32118 39008 ft 409 kts 304°
2026-05-06 08:30 37.13411 122.27100 39001 ft 415 kts 313°
2026-05-06 08:31 37.17354 122.21913 38996 ft 409 kts 303°
2026-05-06 08:31 37.20120 122.15750 38989 ft 404 kts 289°
2026-05-06 08:32 37.21993 122.09099 38985 ft 404 kts 287°
2026-05-06 08:32 37.23707 122.02379 38982 ft 404 kts 287°
2026-05-06 08:33 37.25408 121.95662 38970 ft 404 kts 287°
2026-05-06 08:33 37.27128 121.88942 38972 ft 404 kts 287°
2026-05-06 08:34 37.29707 121.78902 38972 ft 404 kts 286°
2026-05-06 08:35 37.31434 121.72164 38955 ft 406 kts 286°
2026-05-06 08:35 37.33158 121.65406 38964 ft 406 kts 286°
2026-05-06 08:36 37.34879 121.58649 38957 ft 406 kts 286°
2026-05-06 08:36 37.36597 121.51882 38940 ft 406 kts 286°
2026-05-06 08:37 37.38316 121.45099 38944 ft 408 kts 285°
2026-05-06 08:37 37.40033 121.38302 38931 ft 408 kts 285°
2026-05-06 08:38 37.41738 121.31530 38935 ft 408 kts 285°
2026-05-06 08:38 37.43450 121.24716 38926 ft 408 kts 285°
2026-05-06 08:39 37.45165 121.17867 38923 ft 412 kts 285°
2026-05-06 08:39 37.47141 121.11057 38921 ft 415 kts 289°
2026-05-06 08:40 37.49370 121.04384 38914 ft 416 kts 290°
2026-05-06 08:40 37.51589 120.97657 38913 ft 416 kts 289°
2026-05-06 08:41 37.53756 120.90893 38908 ft 419 kts 289°
2026-05-06 08:41 37.55915 120.84059 38911 ft 420 kts 288°
2026-05-06 08:42 37.58077 120.77197 38908 ft 421 kts 288°
2026-05-06 08:42 37.60268 120.70347 38898 ft 421 kts 289°
2026-05-06 08:43 37.62529 120.63513 38894 ft 422 kts 289°
2026-05-06 08:43 37.64784 120.56711 38892 ft 422 kts 290°
2026-05-06 08:44 37.67516 120.50113 38875 ft 425 kts 295°
2026-05-06 08:44 37.70447 120.43628 38873 ft 426 kts 296°
2026-05-06 08:45 37.73414 120.37152 38874 ft 426 kts 295°
2026-05-06 08:45 37.76381 120.30649 38870 ft 427 kts 295°
2026-05-06 08:46 37.79318 120.24185 38864 ft 427 kts 294°
2026-05-06 08:46 37.82288 120.17627 38868 ft 427 kts 294°
2026-05-06 08:47 37.85217 120.11144 38883 ft 427 kts 294°
2026-05-06 08:47 37.88163 120.04615 38852 ft 428 kts 294°
2026-05-06 08:48 37.91111 119.98064 38849 ft 428 kts 294°
2026-05-06 08:48 37.94057 119.91508 38850 ft 428 kts 294°
2026-05-06 08:49 37.96993 119.84957 38849 ft 428 kts 294°
2026-05-06 08:49 37.99925 119.78408 38847 ft 424 kts 293°
2026-05-06 08:50 38.02823 119.71922 38851 ft 420 kts 293°
2026-05-06 08:50 38.05695 119.65473 38850 ft 420 kts 293°
2026-05-06 08:51 38.08547 119.59053 38851 ft 420 kts 293°
2026-05-06 08:51 38.11289 119.52532 38804 ft 417 kts 288°
2026-05-06 08:51 38.12455 119.49169 38588 ft 415 kts 287°
2026-05-06 08:52 38.13584 119.45790 38348 ft 415 kts 287°
2026-05-06 08:52 38.14691 119.42403 38070 ft 415 kts 287°
2026-05-06 08:52 38.15789 119.39006 37794 ft 416 kts 287°
2026-05-06 08:52 38.16889 119.35595 37536 ft 417 kts 287°
2026-05-06 08:53 38.17991 119.32179 37259 ft 419 kts 287°
2026-05-06 08:53 38.19098 119.28750 36990 ft 420 kts 287°
2026-05-06 08:53 38.20210 119.25310 36732 ft 421 kts 287°
2026-05-06 08:53 38.21328 119.21857 36491 ft 423 kts 287°
2026-05-06 08:54 38.22446 119.18399 36241 ft 424 kts 287°
2026-05-06 08:54 38.23567 119.14928 35986 ft 425 kts 287°
2026-05-06 08:54 38.24691 119.11446 35741 ft 426 kts 287°
2026-05-06 08:54 38.25820 119.07943 35491 ft 427 kts 287°
2026-05-06 08:55 38.26947 119.04442 35243 ft 428 kts 287°
2026-05-06 08:55 38.28075 119.00931 35010 ft 429 kts 287°
2026-05-06 08:55 38.29207 118.97406 34768 ft 430 kts 287°
2026-05-06 08:55 38.30340 118.93872 34540 ft 431 kts 288°
2026-05-06 08:56 38.31459 118.90378 34305 ft 431 kts 288°
2026-05-06 08:56 38.32591 118.86840 34081 ft 431 kts 288°
2026-05-06 08:56 38.33723 118.83298 33858 ft 432 kts 288°
2026-05-06 08:56 38.34857 118.79741 33596 ft 433 kts 288°
2026-05-06 08:57 38.35990 118.76186 33318 ft 433 kts 288°
2026-05-06 08:57 38.37126 118.72639 32543 ft 432 kts 288°
2026-05-06 08:57 38.38262 118.69090 31664 ft 433 kts 288°
2026-05-06 08:57 38.39398 118.65531 30759 ft 435 kts 288°
2026-05-06 08:58 38.40539 118.61948 29797 ft 438 kts 288°
2026-05-06 08:58 38.41300 118.59557 29094 ft 439 kts 288°
2026-05-06 08:58 38.42444 118.55965 28366 ft 434 kts 288°
2026-05-06 08:58 38.43572 118.52423 27664 ft 430 kts 288°
2026-05-06 08:59 38.44690 118.48909 26969 ft 426 kts 288°
2026-05-06 08:59 38.45799 118.45417 26282 ft 422 kts 288°
2026-05-06 08:59 38.46895 118.41955 25590 ft 419 kts 288°
2026-05-06 08:59 38.47983 118.38516 24896 ft 417 kts 288°
2026-05-06 09:00 38.49061 118.35096 24234 ft 415 kts 288°
2026-05-06 09:00 38.50133 118.31685 23553 ft 413 kts 288°
2026-05-06 09:00 38.51201 118.28287 22796 ft 412 kts 288°
2026-05-06 09:00 38.52262 118.24914 22085 ft 408 kts 288°
2026-05-06 09:01 38.53314 118.21566 21406 ft 404 kts 288°
2026-05-06 09:01 38.54357 118.18241 20724 ft 401 kts 288°
2026-05-06 09:01 38.55393 118.14934 20042 ft 399 kts 288°
2026-05-06 09:01 38.56421 118.11650 19360 ft 397 kts 287°
2026-05-06 09:02 38.57443 118.08381 18662 ft 395 kts 287°
2026-05-06 09:02 38.58458 118.05131 17963 ft 393 kts 287°
2026-05-06 09:02 38.59468 118.01903 17263 ft 389 kts 287°
2026-05-06 09:02 38.60555 117.98746 17033 ft 389 kts 289°
2026-05-06 09:03 38.61680 117.95585 16772 ft 390 kts 289°
2026-05-06 09:03 38.62785 117.92470 16520 ft 389 kts 289°
2026-05-06 09:03 38.63896 117.89320 16270 ft 388 kts 289°
2026-05-06 09:03 38.65001 117.86173 16019 ft 387 kts 289°
2026-05-06 09:04 38.66100 117.83031 15781 ft 386 kts 289°
2026-05-06 09:04 38.67197 117.79889 15571 ft 385 kts 289°
2026-05-06 09:04 38.68287 117.76760 15515 ft 385 kts 289°
2026-05-06 09:04 38.69376 117.73631 15515 ft 385 kts 289°
2026-05-06 09:05 38.70463 117.70501 15523 ft 384 kts 289°
2026-05-06 09:05 38.71550 117.67369 15524 ft 384 kts 289°
2026-05-06 09:05 38.72623 117.64275 15524 ft 384 kts 289°
2026-05-06 09:05 38.73706 117.61148 15523 ft 384 kts 289°
2026-05-06 09:06 38.74791 117.58012 15529 ft 384 kts 289°
2026-05-06 09:06 38.75872 117.54882 15529 ft 384 kts 289°
2026-05-06 09:06 38.76953 117.51753 15529 ft 384 kts 289°
2026-05-06 09:06 38.78034 117.48619 15529 ft 384 kts 289°
2026-05-06 09:07 38.79113 117.45486 15540 ft 384 kts 289°
2026-05-06 09:07 38.80185 117.42370 15537 ft 385 kts 289°
2026-05-06 09:07 38.81267 117.39222 15538 ft 385 kts 289°
2026-05-06 09:07 38.82344 117.36085 15539 ft 385 kts 289°
2026-05-06 09:08 38.83426 117.32930 15544 ft 385 kts 289°
2026-05-06 09:08 38.84547 117.29813 15543 ft 387 kts 293°
2026-05-06 09:08 38.86111 117.26964 15545 ft 396 kts 308°
2026-05-06 09:08 38.88309 117.24769 15554 ft 407 kts 326°
2026-05-06 09:09 38.90900 117.23356 15549 ft 413 kts 335°
2026-05-06 09:09 38.93622 117.22165 15550 ft 414 kts 336°
2026-05-06 09:09 38.96355 117.20993 15554 ft 413 kts 336°
2026-05-06 09:09 38.99081 117.19813 15554 ft 413 kts 336°
2026-05-06 09:10 39.01798 117.18626 15550 ft 413 kts 336°
2026-05-06 09:10 39.04525 117.17431 15507 ft 413 kts 336°
2026-05-06 09:10 39.07232 117.16239 15336 ft 410 kts 336°
2026-05-06 09:10 39.09922 117.15047 15192 ft 408 kts 336°
2026-05-06 09:11 39.12596 117.13861 15050 ft 405 kts 336°
2026-05-06 09:11 39.15260 117.12679 14907 ft 403 kts 336°
2026-05-06 09:11 39.17911 117.11502 14763 ft 402 kts 336°
2026-05-06 09:11 39.20546 117.10330 14626 ft 400 kts 336°
2026-05-06 09:12 39.23178 117.09159 14479 ft 399 kts 336°
2026-05-06 09:12 39.25798 117.07993 14331 ft 398 kts 336°
2026-05-06 09:12 39.28407 117.06824 14232 ft 395 kts 336°
2026-05-06 09:12 39.30838 117.05420 13827 ft 368 kts 326°
2026-05-06 09:13 39.32924 117.03648 12761 ft 354 kts 320°
2026-05-06 09:13 39.34856 117.01740 11397 ft 353 kts 319°
2026-05-06 09:13 39.36715 116.99836 10966 ft 325 kts 319°
2026-05-06 09:13 39.38396 116.98111 10855 ft 292 kts 319°
2026-05-06 09:14 39.39929 116.96531 10769 ft 268 kts 318°
2026-05-06 09:14 39.41348 116.95059 10663 ft 255 kts 318°
2026-05-06 09:14 39.42700 116.93653 10549 ft 246 kts 318°
2026-05-06 09:14 39.44013 116.92286 10439 ft 245 kts 318°
2026-05-06 09:15 39.45338 116.90905 10320 ft 244 kts 318°
2026-05-06 09:15 39.46662 116.89527 10191 ft 244 kts 318°
2026-05-06 09:15 39.47982 116.88152 9927 ft 244 kts 319°
2026-05-06 09:15 39.49329 116.86746 9265 ft 253 kts 320°
2026-05-06 09:16 39.50711 116.85311 8755 ft 255 kts 320°
2026-05-06 09:16 39.52091 116.83875 8265 ft 256 kts 321°
2026-05-06 09:16 39.53485 116.82420 7773 ft 257 kts 321°
2026-05-06 09:16 39.54878 116.80966 7309 ft 258 kts 321°
2026-05-06 09:17 39.56278 116.79505 6872 ft 258 kts 322°
2026-05-06 09:17 39.57675 116.78046 6404 ft 258 kts 322°
2026-05-06 09:17 39.59075 116.76586 5968 ft 258 kts 322°
2026-05-06 09:17 39.60477 116.75124 5499 ft 260 kts 323°
2026-05-06 09:18 39.61888 116.73652 5006 ft 261 kts 322°
2026-05-06 09:18 39.63303 116.72172 4551 ft 262 kts 323°
2026-05-06 09:18 39.64724 116.70676 4107 ft 263 kts 322°
2026-05-06 09:18 39.66199 116.69297 3909 ft 262 kts 330°
2026-05-06 09:19 39.67829 116.68238 3869 ft 262 kts 339°
2026-05-06 09:19 39.69551 116.67485 3867 ft 261 kts 347°
2026-05-06 09:19 39.71334 116.67053 3871 ft 260 kts 354°
2026-05-06 09:19 39.73133 116.66806 3865 ft 259 kts 355°
2026-05-06 09:20 39.74926 116.66583 3866 ft 259 kts 355°
2026-05-06 09:20 39.76704 116.66327 3865 ft 260 kts 354°
2026-05-06 09:20 39.78506 116.66040 3870 ft 258 kts 354°
2026-05-06 09:20 39.80175 116.65763 4056 ft 231 kts 355°
2026-05-06 09:21 39.81714 116.65537 4078 ft 214 kts 354°
2026-05-06 09:21 39.83137 116.65312 4111 ft 197 kts 354°
2026-05-06 09:21 39.84450 116.65115 4187 ft 185 kts 353°
2026-05-06 09:21 39.85715 116.64918 4103 ft 178 kts 353°
2026-05-06 09:22 39.86905 116.64729 3884 ft 171 kts 353°
2026-05-06 09:22 39.88070 116.64547 3621 ft 167 kts 354°
2026-05-06 09:22 39.89210 116.64371 3381 ft 164 kts 355°
2026-05-06 09:22 39.90332 116.64194 3149 ft 161 kts 356°
2026-05-06 09:23 39.91432 116.64024 2918 ft 157 kts 356°
2026-05-06 09:23 39.92502 116.63860 2734 ft 158 kts 355°
2026-05-06 09:23 39.93594 116.63687 2519 ft 157 kts 356°
2026-05-06 09:23 39.94665 116.63522 2317 ft 153 kts 355°
2026-05-06 09:24 39.95713 116.63357 2112 ft 151 kts 355°
2026-05-06 09:24 39.96742 116.63197 1910 ft 146 kts 356°
2026-05-06 09:24 39.97749 116.63041 1721 ft 145 kts 356°
2026-05-06 09:24 39.98755 116.62884 1528 ft 146 kts 355°
2026-05-06 09:25 39.99762 116.62725 1342 ft 145 kts 354°
2026-05-06 09:25 40.00760 116.62569 1148 ft 145 kts 355°
2026-05-06 09:25 40.01764 116.62412 955 ft 146 kts 355°
2026-05-06 09:25 40.02770 116.62255 761 ft 144 kts 354°
2026-05-06 09:26 40.03747 116.62103 583 ft 140 kts 354°
2026-05-06 09:26 40.04711 116.61950 388 ft 138 kts 354°
2026-05-06 09:26 40.05660 116.61802 221 ft 137 kts 353°
2026-05-06 09:26 40.06593 116.61657 137 ft 129 kts 355°
2026-05-06 09:27 40.07381 116.61535 127 ft 94 kts 353°
2026-05-06 09:27 40.07769 116.61455 126 ft 38 kts 342°
2026-05-06 09:27 40.07923 116.61343 125 ft 11 kts 323°
2026-05-06 09:27 40.07965 116.61263 128 ft 11 kts 279°
2026-05-06 09:28 40.07956 116.61151 128 ft 13 kts 255°
2026-05-06 09:28 40.07886 116.61086 128 ft 11 kts 177°
2026-05-06 09:28 40.07803 116.61112 128 ft 14 kts 173°
2026-05-06 09:28 40.07723 116.61072 126 ft 13 kts 231°
2026-05-06 09:29 40.07661 116.60971 124 ft 15 kts 224°
2026-05-06 09:29 40.07569 116.60897 127 ft 16 kts 199°
2026-05-06 09:29 40.07457 116.60895 125 ft 17 kts 174°
2026-05-06 09:29 40.07388 116.60880 127 ft 5 kts 236°
2026-05-06 09:30 40.07380 116.60822 125 ft 8 kts 263°
2026-05-06 09:30 40.07378 116.60801 123 ft 1 kts 263°
2026-05-06 09:30 40.07377 116.60793 122 ft 0 kts 263°
2026-05-06 09:30 40.07376 116.60783 127 ft 1 kts 263°
2026-05-06 09:31 40.07376 116.60781 127 ft 0 kts 263°